Time,TemperatureF,DewpointF,PressureIn,WindDirection,WindDirectionDegrees,WindSpeedMPH,WindSpeedGustMPH,Humidity,HourlyPrecipIn,Conditions,Clouds,dailyrainin,SoftwareType,DateUTC
2013-01-25 00:00:00,11.7,-10.6,30.15,WNW,298,5.0,0.0,35,0.00,,,0.00,WeatherTracker,2013-01-25 05:00:00,
2013-01-25 00:01:00,11.7,-10.0,30.15,SW,229,0.0,0.0,36,0.00,,,0.00,WeatherTracker,2013-01-25 05:01:00,
2013-01-25 00:06:00,11.6,-10.1,30.14,West,271,2.0,0.0,36,0.00,,,0.00,WeatherTracker,2013-01-25 05:06:00,
2013-01-25 00:11:00,11.4,-10.3,30.15,West,267,1.0,0.0,36,0.00,,,0.00,WeatherTracker,2013-01-25 05:11:00,
2013-01-25 00:16:00,11.4,-9.8,30.16,West,270,0.0,0.0,37,0.00,,,0.00,WeatherTracker,2013-01-25 05:16:00,
2013-01-25 00:21:00,11.4,-9.8,30.16,WSW,246,4.0,0.0,37,0.00,,,0.00,WeatherTracker,2013-01-25 05:21:00,
2013-01-25 00:26:00,11.2,-10.5,30.16,NNE,32,2.0,0.0,36,0.00,,,0.00,WeatherTracker,2013-01-25 05:26:00,
2013-01-25 00:31:00,11.2,-10.5,30.15,West,262,6.0,0.0,36,0.00,,,0.00,WeatherTracker,2013-01-25 05:31:00,
2013-01-25 00:36:00,11.1,-10.6,30.15,WNW,287,1.0,0.0,36,0.00,,,0.00,WeatherTracker,2013-01-25 05:36:00,
2013-01-25 00:41:00,11.0,-10.7,30.16,SE,144,1.0,0.0,36,0.00,,,0.00,WeatherTracker,2013-01-25 05:41:00,
2013-01-25 00:46:00,11.0,-10.7,30.16,West,271,1.0,0.0,36,0.00,,,0.00,WeatherTracker,2013-01-25 05:46:00,
2013-01-25 00:52:00,10.9,-10.2,30.17,WNW,293,3.0,0.0,37,0.00,,,0.00,WeatherTracker,2013-01-25 05:52:00,
2013-01-25 00:57:00,10.8,-10.3,30.17,West,276,1.0,0.0,37,0.00,,,0.00,WeatherTracker,2013-01-25 05:57:00,
2013-01-25 01:02:00,10.7,-9.9,30.18,West,261,4.0,0.0,38,0.00,,,0.00,WeatherTracker,2013-01-25 06:02:00,
2013-01-25 01:07:00,10.6,-9.9,30.17,West,263,3.0,0.0,38,0.00,,,0.00,WeatherTracker,2013-01-25 06:07:00,
2013-01-25 01:12:00,10.5,-9.5,30.16,SW,223,1.0,0.0,39,0.00,,,0.00,WeatherTracker,2013-01-25 06:12:00,
2013-01-25 01:17:00,10.4,-9.1,30.17,NW,311,0.0,0.0,40,0.00,,,0.00,WeatherTracker,2013-01-25 06:17:00,
2013-01-25 01:22:00,10.3,-9.2,30.18,WNW,288,0.0,0.0,40,0.00,,,0.00,WeatherTracker,2013-01-25 06:22:00,
2013-01-25 01:27:00,10.2,-9.3,30.18,SW,224,6.0,0.0,40,0.00,,,0.00,WeatherTracker,2013-01-25 06:27:00,
2013-01-25 01:32:00,10.2,-8.8,30.18,West,275,0.0,0.0,41,0.00,,,0.00,WeatherTracker,2013-01-25 06:32:00,
2013-01-25 01:37:00,10.1,-8.9,30.19,WNW,296,0.0,0.0,41,0.00,,,0.00,WeatherTracker,2013-01-25 06:37:00,
2013-01-25 01:42:00,10.0,-9.4,30.19,WSW,254,3.0,0.0,40,0.00,,,0.00,WeatherTracker,2013-01-25 06:42:00,
2013-01-25 01:47:00,10.0,-9.4,30.18,West,267,1.0,0.0,40,0.00,,,0.00,WeatherTracker,2013-01-25 06:47:00,
2013-01-25 01:52:00,9.9,-9.5,30.18,West,264,2.0,0.0,40,0.00,,,0.00,WeatherTracker,2013-01-25 06:52:00,
2013-01-25 01:57:00,9.8,-9.1,30.19,WNW,296,1.0,0.0,41,0.00,,,0.00,WeatherTracker,2013-01-25 06:57:00,
2013-01-25 02:02:00,9.8,-9.1,30.19,West,275,6.0,0.0,41,0.00,,,0.00,WeatherTracker,2013-01-25 07:02:00,
2013-01-25 02:07:00,9.8,-9.6,30.19,West,265,0.0,0.0,40,0.00,,,0.00,WeatherTracker,2013-01-25 07:07:00,
2013-01-25 02:12:00,9.8,-9.6,30.19,West,270,2.0,0.0,40,0.00,,,0.00,WeatherTracker,2013-01-25 07:12:00,
2013-01-25 02:17:00,9.8,-9.1,30.20,WSW,253,0.0,0.0,41,0.00,,,0.00,WeatherTracker,2013-01-25 07:17:00,
2013-01-25 02:22:00,9.8,-9.1,30.20,WSW,247,1.0,0.0,41,0.00,,,0.00,WeatherTracker,2013-01-25 07:22:00,
2013-01-25 02:27:00,9.8,-9.1,30.20,SE,144,3.0,0.0,41,0.00,,,0.00,WeatherTracker,2013-01-25 07:27:00,
2013-01-25 02:32:00,9.7,-9.2,30.20,WSW,247,1.0,0.0,41,0.00,,,0.00,WeatherTracker,2013-01-25 07:32:00,
2013-01-25 02:37:00,9.6,-9.3,30.20,West,262,1.0,0.0,41,0.00,,,0.00,WeatherTracker,2013-01-25 07:37:00,
2013-01-25 02:42:00,9.5,-8.9,30.20,West,275,0.0,0.0,42,0.00,,,0.00,WeatherTracker,2013-01-25 07:42:00,
2013-01-25 02:47:00,9.5,-8.9,30.19,West,269,5.0,0.0,42,0.00,,,0.00,WeatherTracker,2013-01-25 07:47:00,
2013-01-25 02:52:00,9.5,-8.4,30.20,West,261,1.0,0.0,43,0.00,,,0.00,WeatherTracker,2013-01-25 07:52:00,
2013-01-25 02:57:00,9.4,-9.0,30.20,WNW,294,1.0,0.0,42,0.00,,,0.00,WeatherTracker,2013-01-25 07:57:00,
2013-01-25 03:03:00,9.4,-8.5,30.20,West,272,3.0,0.0,43,0.00,,,0.00,WeatherTracker,2013-01-25 08:03:00,
2013-01-25 03:08:00,9.4,-8.5,30.20,WSW,240,0.0,0.0,43,0.00,,,0.00,WeatherTracker,2013-01-25 08:08:00,
2013-01-25 03:13:00,9.4,-8.5,30.20,West,264,1.0,0.0,43,0.00,,,0.00,WeatherTracker,2013-01-25 08:13:00,
2013-01-25 03:18:00,9.4,-8.1,30.20,SW,233,2.0,0.0,44,0.00,,,0.00,WeatherTracker,2013-01-25 08:18:00,
2013-01-25 03:23:00,9.3,-8.6,30.20,WSW,255,1.0,0.0,43,0.00,,,0.00,WeatherTracker,2013-01-25 08:23:00,
2013-01-25 03:28:00,9.3,-8.6,30.20,SSW,200,1.0,0.0,43,0.00,,,0.00,WeatherTracker,2013-01-25 08:28:00,
2013-01-25 03:33:00,9.3,-9.1,30.20,SW,232,0.0,0.0,42,0.00,,,0.00,WeatherTracker,2013-01-25 08:33:00,
2013-01-25 03:38:00,9.2,-8.7,30.20,SW,236,0.0,0.0,43,0.00,,,0.00,WeatherTracker,2013-01-25 08:38:00,
2013-01-25 03:43:00,9.2,-8.7,30.20,SSW,212,0.0,0.0,43,0.00,,,0.00,WeatherTracker,2013-01-25 08:43:00,
2013-01-25 03:48:00,9.1,-8.8,30.20,West,265,2.0,0.0,43,0.00,,,0.00,WeatherTracker,2013-01-25 08:48:00,
2013-01-25 03:53:00,9.1,-8.8,30.20,West,267,0.0,0.0,43,0.00,,,0.00,WeatherTracker,2013-01-25 08:53:00,
2013-01-25 03:58:00,9.1,-8.8,30.21,West,266,0.0,0.0,43,0.00,,,0.00,WeatherTracker,2013-01-25 08:58:00,
2013-01-25 04:03:00,9.1,-8.3,30.20,WSW,247,0.0,0.0,44,0.00,,,0.00,WeatherTracker,2013-01-25 09:03:00,
2013-01-25 04:08:00,9.1,-8.8,30.21,WNW,285,2.0,0.0,43,0.00,,,0.00,WeatherTracker,2013-01-25 09:08:00,
2013-01-25 04:13:00,9.1,-8.8,30.20,WSW,257,0.0,0.0,43,0.00,,,0.00,WeatherTracker,2013-01-25 09:13:00,
2013-01-25 04:18:00,9.1,-8.8,30.20,West,271,0.0,0.0,43,0.00,,,0.00,WeatherTracker,2013-01-25 09:18:00,
2013-01-25 04:23:00,9.1,-8.3,30.20,West,281,0.0,0.0,44,0.00,,,0.00,WeatherTracker,2013-01-25 09:23:00,
2013-01-25 04:28:00,9.1,-8.3,30.20,West,277,0.0,0.0,44,0.00,,,0.00,WeatherTracker,2013-01-25 09:28:00,
2013-01-25 04:33:00,9.0,-8.4,30.20,WSW,250,1.0,0.0,44,0.00,,,0.00,WeatherTracker,2013-01-25 09:33:00,
2013-01-25 04:38:00,9.0,-8.4,30.20,WSW,241,2.0,0.0,44,0.00,,,0.00,WeatherTracker,2013-01-25 09:38:00,
2013-01-25 04:43:00,9.0,-8.4,30.21,SSW,211,0.0,0.0,44,0.00,,,0.00,WeatherTracker,2013-01-25 09:43:00,
2013-01-25 04:48:00,9.0,-8.4,30.21,WSW,244,0.0,0.0,44,0.00,,,0.00,WeatherTracker,2013-01-25 09:48:00,
2013-01-25 04:54:00,9.0,-8.4,30.21,WSW,241,0.0,0.0,44,0.00,,,0.00,WeatherTracker,2013-01-25 09:54:00,
2013-01-25 04:59:00,9.0,-8.4,30.21,SW,235,2.0,0.0,44,0.00,,,0.00,WeatherTracker,2013-01-25 09:59:00,
2013-01-25 05:04:00,9.0,-8.0,30.21,West,272,1.0,0.0,45,0.00,,,0.00,WeatherTracker,2013-01-25 10:04:00,
2013-01-25 05:09:00,9.1,-7.9,30.21,West,273,1.0,0.0,45,0.00,,,0.00,WeatherTracker,2013-01-25 10:09:00,
2013-01-25 05:14:00,9.0,-8.4,30.22,SW,230,0.0,0.0,44,0.00,,,0.00,WeatherTracker,2013-01-25 10:14:00,
2013-01-25 05:19:00,9.0,-8.0,30.22,SW,233,0.0,0.0,45,0.00,,,0.00,WeatherTracker,2013-01-25 10:19:00,
2013-01-25 05:24:00,8.9,-7.6,30.22,SSW,194,0.0,0.0,46,0.00,,,0.00,WeatherTracker,2013-01-25 10:24:00,
2013-01-25 05:29:00,8.7,-7.8,30.22,West,263,0.0,0.0,46,0.00,,,0.00,WeatherTracker,2013-01-25 10:29:00,
2013-01-25 05:34:00,8.6,-7.9,30.22,WNW,286,0.0,0.0,46,0.00,,,0.00,WeatherTracker,2013-01-25 10:34:00,
2013-01-25 05:39:00,8.6,-7.5,30.22,WSW,245,5.0,0.0,47,0.00,,,0.00,WeatherTracker,2013-01-25 10:39:00,
2013-01-25 05:44:00,8.5,-7.5,30.22,SW,221,0.0,0.0,47,0.00,,,0.00,WeatherTracker,2013-01-25 10:44:00,
2013-01-25 05:49:00,8.4,-7.6,30.22,SW,228,0.0,0.0,47,0.00,,,0.00,WeatherTracker,2013-01-25 10:49:00,
2013-01-25 05:54:00,8.3,-7.7,30.22,WSW,245,0.0,0.0,47,0.00,,,0.00,WeatherTracker,2013-01-25 10:54:00,
2013-01-25 05:59:00,8.3,-7.3,30.22,SSW,198,0.0,0.0,48,0.00,,,0.00,WeatherTracker,2013-01-25 10:59:00,
2013-01-25 06:04:00,8.3,-6.9,30.22,SW,234,0.0,0.0,49,0.00,,,0.00,WeatherTracker,2013-01-25 11:04:00,
2013-01-25 06:09:00,8.2,-7.4,30.22,WNW,288,0.0,0.0,48,0.00,,,0.00,WeatherTracker,2013-01-25 11:09:00,
2013-01-25 06:14:00,8.2,-7.0,30.21,WSW,241,0.0,0.0,49,0.00,,,0.00,WeatherTracker,2013-01-25 11:14:00,
2013-01-25 06:19:00,8.1,-7.1,30.21,West,273,0.0,0.0,49,0.00,,,0.00,WeatherTracker,2013-01-25 11:19:00,
2013-01-25 06:24:00,8.1,-7.1,30.21,WSW,254,2.0,0.0,49,0.00,,,0.00,WeatherTracker,2013-01-25 11:24:00,
2013-01-25 06:29:00,8.2,-7.0,30.21,SW,223,1.0,0.0,49,0.00,,,0.00,WeatherTracker,2013-01-25 11:29:00,
2013-01-25 06:34:00,8.3,-7.3,30.21,WSW,258,1.0,0.0,48,0.00,,,0.00,WeatherTracker,2013-01-25 11:34:00,
2013-01-25 06:39:00,8.5,-7.1,30.21,WSW,256,2.0,0.0,48,0.00,,,0.00,WeatherTracker,2013-01-25 11:39:00,
2013-01-25 06:44:00,8.6,-7.0,30.21,West,277,0.0,0.0,48,0.00,,,0.00,WeatherTracker,2013-01-25 11:44:00,
2013-01-25 06:49:00,8.6,-7.0,30.21,West,277,2.0,0.0,48,0.00,,,0.00,WeatherTracker,2013-01-25 11:49:00,
2013-01-25 06:55:00,8.7,-6.9,30.22,WSW,247,1.0,0.0,48,0.00,,,0.00,WeatherTracker,2013-01-25 11:55:00,
2013-01-25 07:00:00,8.7,-7.4,30.22,South,179,1.0,0.0,47,0.00,,,0.00,WeatherTracker,2013-01-25 12:00:00,
2013-01-25 07:05:00,8.7,-7.4,30.22,West,281,0.0,0.0,47,0.00,,,0.00,WeatherTracker,2013-01-25 12:05:00,
2013-01-25 07:10:00,8.7,-7.4,30.22,West,269,0.0,0.0,47,0.00,,,0.00,WeatherTracker,2013-01-25 12:10:00,
2013-01-25 07:15:00,8.7,-7.4,30.22,West,261,0.0,0.0,47,0.00,,,0.00,WeatherTracker,2013-01-25 12:15:00,
2013-01-25 07:20:00,8.8,-7.3,30.21,West,271,0.0,0.0,47,0.00,,,0.00,WeatherTracker,2013-01-25 12:20:00,
2013-01-25 07:25:00,8.9,-7.2,30.22,WSW,242,1.0,0.0,47,0.00,,,0.00,WeatherTracker,2013-01-25 12:25:00,
2013-01-25 07:30:00,9.0,-7.5,30.21,West,263,2.0,0.0,46,0.00,,,0.00,WeatherTracker,2013-01-25 12:30:00,
2013-01-25 07:35:00,9.1,-7.0,30.21,NW,326,0.0,0.0,47,0.00,,,0.00,WeatherTracker,2013-01-25 12:35:00,
2013-01-25 07:40:00,9.3,-7.2,30.21,WNW,302,0.0,0.0,46,0.00,,,0.00,WeatherTracker,2013-01-25 12:40:00,
2013-01-25 07:45:00,9.4,-7.6,30.21,West,265,2.0,0.0,45,0.00,,,0.00,WeatherTracker,2013-01-25 12:45:00,
2013-01-25 07:50:00,9.4,-7.6,30.22,West,281,1.0,0.0,45,0.00,,,0.00,WeatherTracker,2013-01-25 12:50:00,
2013-01-25 07:55:00,9.6,-7.0,30.22,South,182,3.0,0.0,46,0.00,,,0.00,WeatherTracker,2013-01-25 12:55:00,
2013-01-25 08:00:00,9.7,-7.3,30.23,WNW,284,0.0,0.0,45,0.00,,,0.00,WeatherTracker,2013-01-25 13:00:00,
2013-01-25 08:05:00,9.9,-7.1,30.22,SSW,212,1.0,0.0,45,0.00,,,0.00,WeatherTracker,2013-01-25 13:05:00,
2013-01-25 08:10:00,10.1,-7.0,30.23,South,178,3.0,0.0,45,0.00,,,0.00,WeatherTracker,2013-01-25 13:10:00,
2013-01-25 08:15:00,10.3,-7.2,30.23,West,276,4.0,0.0,44,0.00,,,0.00,WeatherTracker,2013-01-25 13:15:00,
2013-01-25 08:20:00,10.4,-7.1,30.23,ESE,110,1.0,0.0,44,0.00,,,0.00,WeatherTracker,2013-01-25 13:20:00,
2013-01-25 08:25:00,10.5,-7.5,30.23,WNW,302,1.0,0.0,43,0.00,,,0.00,WeatherTracker,2013-01-25 13:25:00,
2013-01-25 08:30:00,10.7,-7.3,30.23,West,279,0.0,0.0,43,0.00,,,0.00,WeatherTracker,2013-01-25 13:30:00,
2013-01-25 08:35:00,11.0,-7.1,30.23,West,279,3.0,0.0,43,0.00,,,0.00,WeatherTracker,2013-01-25 13:35:00,
2013-01-25 08:40:00,11.0,-7.5,30.23,WNW,284,3.0,0.0,42,0.00,,,0.00,WeatherTracker,2013-01-25 13:40:00,
2013-01-25 08:45:00,11.0,-7.5,30.23,WSW,256,3.0,0.0,42,0.00,,,0.00,WeatherTracker,2013-01-25 13:45:00,
2013-01-25 08:51:00,11.2,-7.4,30.23,WSW,240,5.0,0.0,42,0.00,,,0.00,WeatherTracker,2013-01-25 13:51:00,
2013-01-25 08:56:00,11.4,-7.7,30.23,West,260,4.0,0.0,41,0.00,,,0.00,WeatherTracker,2013-01-25 13:56:00,
2013-01-25 09:01:00,11.6,-7.5,30.23,WNW,293,2.0,0.0,41,0.00,,,0.00,WeatherTracker,2013-01-25 14:01:00,
2013-01-25 09:06:00,11.7,-7.9,30.23,SW,230,3.0,0.0,40,0.00,,,0.00,WeatherTracker,2013-01-25 14:06:00,
2013-01-25 09:11:00,12.1,-7.0,30.23,WNW,285,3.0,0.0,41,0.00,,,0.00,WeatherTracker,2013-01-25 14:11:00,
2013-01-25 09:16:00,12.7,-6.5,30.23,SSE,159,0.0,0.0,41,0.00,,,0.00,WeatherTracker,2013-01-25 14:16:00,
2013-01-25 09:21:00,13.2,-7.1,30.23,West,276,1.0,0.0,39,0.00,,,0.00,WeatherTracker,2013-01-25 14:21:00,
2013-01-25 09:26:00,13.4,-7.4,30.23,SSW,211,3.0,0.0,38,0.00,,,0.00,WeatherTracker,2013-01-25 14:26:00,
2013-01-25 09:31:00,13.3,-7.5,30.23,SW,227,13.0,0.0,38,0.00,,,0.00,WeatherTracker,2013-01-25 14:31:00,
2013-01-25 09:36:00,13.5,-7.9,30.23,West,275,4.0,0.0,37,0.00,,,0.00,WeatherTracker,2013-01-25 14:36:00,
2013-01-25 09:41:00,13.7,-7.7,30.23,NW,316,1.0,0.0,37,0.00,,,0.00,WeatherTracker,2013-01-25 14:41:00,
2013-01-25 09:46:00,14.3,-7.2,30.24,WNW,284,2.0,0.0,37,0.00,,,0.00,WeatherTracker,2013-01-25 14:46:00,
2013-01-25 09:51:00,14.6,-7.4,30.24,SW,232,4.0,0.0,36,0.00,,,0.00,WeatherTracker,2013-01-25 14:51:00,
2013-01-25 09:56:00,15.2,-6.9,30.23,SW,230,7.0,0.0,36,0.00,,,0.00,WeatherTracker,2013-01-25 14:56:00,
2013-01-25 10:01:00,15.2,-7.5,30.23,West,277,3.0,0.0,35,0.00,,,0.00,WeatherTracker,2013-01-25 15:01:00,
2013-01-25 10:06:00,15.3,-8.0,30.24,West,269,1.0,0.0,34,0.00,,,0.00,WeatherTracker,2013-01-25 15:06:00,
2013-01-25 10:11:00,15.4,-7.9,30.24,WSW,248,2.0,0.0,34,0.00,,,0.00,WeatherTracker,2013-01-25 15:11:00,
2013-01-25 10:16:00,15.8,-7.5,30.24,West,270,0.0,0.0,34,0.00,,,0.00,WeatherTracker,2013-01-25 15:16:00,
2013-01-25 10:21:00,16.7,-6.1,30.24,NW,315,0.0,0.0,35,0.00,,,0.00,WeatherTracker,2013-01-25 15:21:00,
2013-01-25 10:26:00,17.1,-7.0,30.23,West,261,1.0,0.0,33,0.00,,,0.00,WeatherTracker,2013-01-25 15:26:00,
2013-01-25 10:32:00,16.7,-8.0,30.23,West,261,6.0,0.0,32,0.00,,,0.00,WeatherTracker,2013-01-25 15:32:00,
2013-01-25 10:37:00,16.6,-7.4,30.23,West,270,5.0,0.0,33,0.00,,,0.00,WeatherTracker,2013-01-25 15:37:00,
2013-01-25 10:42:00,17.1,-7.0,30.23,SSE,159,1.0,0.0,33,0.00,,,0.00,WeatherTracker,2013-01-25 15:42:00,
2013-01-25 10:47:00,17.5,-7.9,30.23,SW,227,10.0,0.0,31,0.00,,,0.00,WeatherTracker,2013-01-25 15:47:00,
2013-01-25 10:52:00,17.4,-8.0,30.22,West,275,6.0,0.0,31,0.00,,,0.00,WeatherTracker,2013-01-25 15:52:00,
2013-01-25 10:57:00,17.3,-8.1,30.22,West,275,2.0,0.0,31,0.00,,,0.00,WeatherTracker,2013-01-25 15:57:00,
2013-01-25 11:02:00,17.7,-7.7,30.22,SW,229,6.0,0.0,31,0.00,,,0.00,WeatherTracker,2013-01-25 16:02:00,
2013-01-25 11:07:00,18.1,-7.4,30.21,WSW,253,0.0,0.0,31,0.00,,,0.00,WeatherTracker,2013-01-25 16:07:00,
2013-01-25 11:12:00,18.6,-7.6,30.21,West,269,0.0,0.0,30,0.00,,,0.00,WeatherTracker,2013-01-25 16:12:00,
2013-01-25 11:17:00,18.9,-8.0,30.20,West,265,4.0,0.0,29,0.00,,,0.00,WeatherTracker,2013-01-25 16:17:00,
2013-01-25 11:22:00,18.7,-8.9,30.20,West,272,0.0,0.0,28,0.00,,,0.00,WeatherTracker,2013-01-25 16:22:00,
2013-01-25 11:27:00,19.0,-8.0,30.20,West,267,2.0,0.0,29,0.00,,,0.00,WeatherTracker,2013-01-25 16:27:00,
2013-01-25 11:32:00,19.2,-7.8,30.20,West,265,3.0,0.0,29,0.00,,,0.00,WeatherTracker,2013-01-25 16:32:00,
2013-01-25 11:37:00,19.4,-7.6,30.19,NW,317,2.0,0.0,29,0.00,,,0.00,WeatherTracker,2013-01-25 16:37:00,
2013-01-25 11:42:00,19.6,-8.9,30.19,West,281,2.0,0.0,27,0.00,,,0.00,WeatherTracker,2013-01-25 16:42:00,
2013-01-25 11:47:00,19.7,-8.1,30.18,WNW,302,2.0,0.0,28,0.00,,,0.00,WeatherTracker,2013-01-25 16:47:00,
2013-01-25 11:52:00,20.0,-7.1,30.18,SW,232,0.0,0.0,29,0.00,,,0.00,WeatherTracker,2013-01-25 16:52:00,
2013-01-25 11:57:00,20.2,-7.6,30.18,WSW,255,5.0,0.0,28,0.00,,,0.00,WeatherTracker,2013-01-25 16:57:00,
2013-01-25 12:02:00,20.3,-8.3,30.18,West,278,0.0,0.0,27,0.00,,,0.00,WeatherTracker,2013-01-25 17:02:00,
2013-01-25 12:07:00,20.7,-7.9,30.18,South,172,6.0,0.0,27,0.00,,,0.00,WeatherTracker,2013-01-25 17:07:00,
2013-01-25 12:12:00,21.0,-7.7,30.17,SSW,200,0.0,0.0,27,0.00,,,0.00,WeatherTracker,2013-01-25 17:12:00,
2013-01-25 12:17:00,21.5,-8.0,30.17,West,259,3.0,0.0,26,0.00,,,0.00,WeatherTracker,2013-01-25 17:17:00,
2013-01-25 12:22:00,21.6,-7.9,30.17,SSW,196,1.0,0.0,26,0.00,,,0.00,WeatherTracker,2013-01-25 17:22:00,
2013-01-25 12:27:00,21.7,-8.6,30.17,NE,36,0.0,0.0,25,0.00,,,0.00,WeatherTracker,2013-01-25 17:27:00,
2013-01-25 12:33:00,21.8,-7.8,30.17,West,259,1.0,0.0,26,0.00,,,0.00,WeatherTracker,2013-01-25 17:33:00,
2013-01-25 12:38:00,21.9,-8.5,30.17,WSW,244,5.0,0.0,25,0.00,,,0.00,WeatherTracker,2013-01-25 17:38:00,
2013-01-25 12:43:00,21.8,-7.8,30.17,West,275,3.0,0.0,26,0.00,,,0.00,WeatherTracker,2013-01-25 17:43:00,
2013-01-25 12:48:00,21.6,-9.5,30.16,NNW,337,3.0,0.0,24,0.00,,,0.00,WeatherTracker,2013-01-25 17:48:00,
2013-01-25 12:53:00,21.9,-8.5,30.16,WSW,255,3.0,0.0,25,0.00,,,0.00,WeatherTracker,2013-01-25 17:53:00,
2013-01-25 12:58:00,22.2,-8.2,30.16,West,281,2.0,0.0,25,0.00,,,0.00,WeatherTracker,2013-01-25 17:58:00,
2013-01-25 13:03:00,22.3,-8.9,30.15,West,271,3.0,0.0,24,0.00,,,0.00,WeatherTracker,2013-01-25 18:03:00,
2013-01-25 13:08:00,22.3,-8.9,30.15,WSW,255,1.0,0.0,24,0.00,,,0.00,WeatherTracker,2013-01-25 18:08:00,
2013-01-25 13:13:00,22.7,-7.8,30.14,NNW,327,1.0,0.0,25,0.00,,,0.00,WeatherTracker,2013-01-25 18:13:00,
2013-01-25 13:18:00,23.0,-8.3,30.14,WSW,242,3.0,0.0,24,0.00,,,0.00,WeatherTracker,2013-01-25 18:18:00,
2013-01-25 13:23:00,22.6,-8.7,30.14,WSW,248,3.0,0.0,24,0.00,,,0.00,WeatherTracker,2013-01-25 18:23:00,
2013-01-25 13:28:00,22.5,-7.9,30.14,West,271,3.0,0.0,25,0.00,,,0.00,WeatherTracker,2013-01-25 18:28:00,
2013-01-25 13:33:00,22.4,-8.9,30.13,West,266,4.0,0.0,24,0.00,,,0.00,WeatherTracker,2013-01-25 18:33:00,
2013-01-25 13:38:00,22.4,-8.9,30.13,SW,232,2.0,0.0,24,0.00,,,0.00,WeatherTracker,2013-01-25 18:38:00,
2013-01-25 13:43:00,22.5,-8.8,30.12,West,280,4.0,0.0,24,0.00,,,0.00,WeatherTracker,2013-01-25 18:43:00,
2013-01-25 13:48:00,22.6,-8.7,30.12,West,263,5.0,0.0,24,0.00,,,0.00,WeatherTracker,2013-01-25 18:48:00,
2013-01-25 13:53:00,22.8,-8.5,30.12,WSW,249,0.0,0.0,24,0.00,,,0.00,WeatherTracker,2013-01-25 18:53:00,
2013-01-25 13:58:00,23.0,-9.2,30.12,WSW,258,0.0,0.0,23,0.00,,,0.00,WeatherTracker,2013-01-25 18:58:00,
2013-01-25 14:03:00,22.9,-8.4,30.12,SSW,203,1.0,0.0,24,0.00,,,0.00,WeatherTracker,2013-01-25 19:03:00,
2013-01-25 14:08:00,23.2,-8.2,30.12,WNW,296,0.0,0.0,24,0.00,,,0.00,WeatherTracker,2013-01-25 19:08:00,
2013-01-25 14:13:00,23.8,-6.8,30.11,NE,42,0.0,0.0,25,0.00,,,0.00,WeatherTracker,2013-01-25 19:13:00,
2013-01-25 14:18:00,24.1,-7.4,30.11,West,275,1.0,0.0,24,0.00,,,0.00,WeatherTracker,2013-01-25 19:18:00,
2013-01-25 14:23:00,24.0,-8.4,30.11,WNW,299,0.0,0.0,23,0.00,,,0.00,WeatherTracker,2013-01-25 19:23:00,
2013-01-25 14:28:00,23.6,-8.7,30.11,SW,224,1.0,0.0,23,0.00,,,0.00,WeatherTracker,2013-01-25 19:28:00,
2013-01-25 14:34:00,23.5,-8.8,30.11,WNW,291,0.0,0.0,23,0.00,,,0.00,WeatherTracker,2013-01-25 19:34:00,
2013-01-25 14:39:00,23.5,-8.8,30.10,West,268,1.0,0.0,23,0.00,,,0.00,WeatherTracker,2013-01-25 19:39:00,
2013-01-25 14:44:00,23.3,-8.1,30.10,WNW,285,2.0,0.0,24,0.00,,,0.00,WeatherTracker,2013-01-25 19:44:00,
2013-01-25 14:49:00,23.2,-9.0,30.10,SSW,213,0.0,0.0,23,0.00,,,0.00,WeatherTracker,2013-01-25 19:49:00,
2013-01-25 14:54:00,23.3,-7.3,30.10,West,273,1.0,0.0,25,0.00,,,0.00,WeatherTracker,2013-01-25 19:54:00,
2013-01-25 14:59:00,23.3,-7.3,30.09,SW,235,9.0,0.0,25,0.00,,,0.00,WeatherTracker,2013-01-25 19:59:00,
2013-01-25 15:04:00,23.2,-8.2,30.09,SSW,201,0.0,0.0,24,0.00,,,0.00,WeatherTracker,2013-01-25 20:04:00,
2013-01-25 15:09:00,23.3,-7.3,30.10,SW,232,1.0,0.0,25,0.00,,,0.00,WeatherTracker,2013-01-25 20:09:00,
2013-01-25 15:14:00,23.4,-7.2,30.09,WSW,238,1.0,0.0,25,0.00,,,0.00,WeatherTracker,2013-01-25 20:14:00,
2013-01-25 15:19:00,23.5,-7.1,30.09,West,259,2.0,0.0,25,0.00,,,0.00,WeatherTracker,2013-01-25 20:19:00,
2013-01-25 15:24:00,23.7,-6.9,30.09,WSW,242,3.0,0.0,25,0.00,,,0.00,WeatherTracker,2013-01-25 20:24:00,
2013-01-25 15:29:00,23.7,-6.1,30.09,West,259,2.0,0.0,26,0.00,,,0.00,WeatherTracker,2013-01-25 20:29:00,
2013-01-25 15:34:00,23.3,-6.5,30.09,WSW,247,0.0,0.0,26,0.00,,,0.00,WeatherTracker,2013-01-25 20:34:00,
2013-01-25 15:39:00,23.1,-5.9,30.09,West,268,5.0,0.0,27,0.00,,,0.00,WeatherTracker,2013-01-25 20:39:00,
2013-01-25 15:44:00,22.9,-6.0,30.09,SSW,192,2.0,0.0,27,0.00,,,0.00,WeatherTracker,2013-01-25 20:44:00,
2013-01-25 15:49:00,22.6,-6.3,30.09,West,281,2.0,0.0,27,0.00,,,0.00,WeatherTracker,2013-01-25 20:49:00,
2013-01-25 15:54:00,22.6,-6.3,30.10,WSW,258,4.0,0.0,27,0.00,,,0.00,WeatherTracker,2013-01-25 20:54:00,
2013-01-25 15:59:00,22.6,-5.5,30.09,SW,227,1.0,0.0,28,0.00,,,0.00,WeatherTracker,2013-01-25 20:59:00,
2013-01-25 16:04:00,22.6,-5.5,30.09,WSW,254,1.0,0.0,28,0.00,,,0.00,WeatherTracker,2013-01-25 21:04:00,
2013-01-25 16:09:00,22.6,-6.3,30.09,SW,219,0.0,0.0,27,0.00,,,0.00,WeatherTracker,2013-01-25 21:09:00,
2013-01-25 16:14:00,22.5,-5.6,30.09,West,265,0.0,0.0,28,0.00,,,0.00,WeatherTracker,2013-01-25 21:14:00,
2013-01-25 16:19:00,22.4,-6.5,30.09,WNW,285,0.0,0.0,27,0.00,,,0.00,WeatherTracker,2013-01-25 21:19:00,
2013-01-25 16:24:00,22.3,-6.5,30.09,SW,220,0.0,0.0,27,0.00,,,0.00,WeatherTracker,2013-01-25 21:24:00,
2013-01-25 16:29:00,22.2,-6.6,30.09,SW,215,0.0,0.0,27,0.00,,,0.00,WeatherTracker,2013-01-25 21:29:00,
2013-01-25 16:35:00,22.2,-5.9,30.09,WSW,238,0.0,0.0,28,0.00,,,0.00,WeatherTracker,2013-01-25 21:35:00,
2013-01-25 16:40:00,22.2,-5.2,30.09,WSW,240,0.0,0.0,29,0.00,,,0.00,WeatherTracker,2013-01-25 21:40:00,
2013-01-25 16:45:00,22.2,-5.2,30.09,WSW,257,1.0,0.0,29,0.00,,,0.00,WeatherTracker,2013-01-25 21:45:00,
2013-01-25 16:50:00,22.2,-5.2,30.10,WSW,252,2.0,0.0,29,0.00,,,0.00,WeatherTracker,2013-01-25 21:50:00,
2013-01-25 16:55:00,22.1,-5.3,30.10,WSW,252,1.0,0.0,29,0.00,,,0.00,WeatherTracker,2013-01-25 21:55:00,
2013-01-25 17:00:00,22.1,-5.3,30.09,West,277,0.0,0.0,29,0.00,,,0.00,WeatherTracker,2013-01-25 22:00:00,
2013-01-25 17:05:00,22.0,-4.6,30.10,NW,304,0.0,0.0,30,0.00,,,0.00,WeatherTracker,2013-01-25 22:05:00,
2013-01-25 17:10:00,22.0,-5.3,30.09,WSW,246,0.0,0.0,29,0.00,,,0.00,WeatherTracker,2013-01-25 22:10:00,
2013-01-25 17:15:00,21.9,-4.7,30.09,SW,232,2.0,0.0,30,0.00,,,0.00,WeatherTracker,2013-01-25 22:15:00,
2013-01-25 17:20:00,21.9,-5.4,30.09,WSW,244,2.0,0.0,29,0.00,,,0.00,WeatherTracker,2013-01-25 22:20:00,
2013-01-25 17:25:00,21.9,-4.7,30.09,West,268,1.0,0.0,30,0.00,,,0.00,WeatherTracker,2013-01-25 22:25:00,
2013-01-25 17:30:00,21.8,-4.8,30.09,West,264,1.0,0.0,30,0.00,,,0.00,WeatherTracker,2013-01-25 22:30:00,
2013-01-25 17:35:00,21.8,-4.8,30.09,West,264,0.0,0.0,30,0.00,,,0.00,WeatherTracker,2013-01-25 22:35:00,
2013-01-25 17:40:00,21.8,-3.5,30.09,West,265,0.0,0.0,32,0.00,,,0.00,WeatherTracker,2013-01-25 22:40:00,
2013-01-25 17:45:00,21.7,-4.2,30.09,NW,314,5.0,0.0,31,0.00,,,0.00,WeatherTracker,2013-01-25 22:45:00,
2013-01-25 17:50:00,21.7,-4.2,30.08,West,277,0.0,0.0,31,0.00,,,0.00,WeatherTracker,2013-01-25 22:50:00,
2013-01-25 17:55:00,21.6,-4.3,30.08,SW,236,0.0,0.0,31,0.00,,,0.00,WeatherTracker,2013-01-25 22:55:00,
2013-01-25 18:00:00,21.6,-4.3,30.08,SW,236,0.0,0.0,31,0.00,,,0.00,WeatherTracker,2013-01-25 23:00:00,
2013-01-25 18:05:00,21.6,-3.6,30.08,West,262,0.0,0.0,32,0.00,,,0.00,WeatherTracker,2013-01-25 23:05:00,
2013-01-25 18:10:00,21.5,-3.1,30.07,West,277,0.0,0.0,33,0.00,,,0.00,WeatherTracker,2013-01-25 23:10:00,
2013-01-25 18:15:00,21.5,-4.4,30.08,West,266,0.0,0.0,31,0.00,,,0.00,WeatherTracker,2013-01-25 23:15:00,
2013-01-25 18:20:00,21.5,-3.7,30.08,West,263,0.0,0.0,32,0.00,,,0.00,WeatherTracker,2013-01-25 23:20:00,
2013-01-25 18:25:00,21.5,-3.7,30.08,West,271,0.0,0.0,32,0.00,,,0.00,WeatherTracker,2013-01-25 23:25:00,
2013-01-25 18:31:00,21.5,-3.7,30.07,West,271,0.0,0.0,32,0.00,,,0.00,WeatherTracker,2013-01-25 23:31:00,
2013-01-25 18:36:00,21.4,-3.2,30.07,South,187,0.0,0.0,33,0.00,,,0.00,WeatherTracker,2013-01-25 23:36:00,
2013-01-25 18:41:00,21.4,-3.8,30.07,WSW,239,0.0,0.0,32,0.00,,,0.00,WeatherTracker,2013-01-25 23:41:00,
2013-01-25 18:46:00,21.3,-3.9,30.07,WSW,244,0.0,0.0,32,0.00,,,0.00,WeatherTracker,2013-01-25 23:46:00,
2013-01-25 18:51:00,21.3,-3.9,30.07,WSW,248,0.0,0.0,32,0.00,,,0.00,WeatherTracker,2013-01-25 23:51:00,
2013-01-25 18:56:00,21.3,-2.6,30.07,WSW,248,0.0,0.0,34,0.00,,,0.00,WeatherTracker,2013-01-25 23:56:00,
2013-01-25 19:01:00,21.3,-2.6,30.07,West,259,1.0,0.0,34,0.00,,,0.00,WeatherTracker,2013-01-26 00:01:00,
2013-01-25 19:06:00,21.3,-3.3,30.07,WSW,252,0.0,0.0,33,0.00,,,0.00,WeatherTracker,2013-01-26 00:06:00,
2013-01-25 19:11:00,21.3,-2.6,30.07,WSW,254,0.0,0.0,34,0.00,,,0.00,WeatherTracker,2013-01-26 00:11:00,
2013-01-25 19:16:00,21.3,-3.3,30.07,SW,236,0.0,0.0,33,0.00,,,0.00,WeatherTracker,2013-01-26 00:16:00,
2013-01-25 19:21:00,21.3,-3.3,30.07,WSW,237,0.0,0.0,33,0.00,,,0.00,WeatherTracker,2013-01-26 00:21:00,
2013-01-25 19:26:00,21.3,-2.6,30.07,WSW,238,0.0,0.0,34,0.00,,,0.00,WeatherTracker,2013-01-26 00:26:00,
2013-01-25 19:31:00,21.2,-2.7,30.07,WSW,248,3.0,0.0,34,0.00,,,0.00,WeatherTracker,2013-01-26 00:31:00,
2013-01-25 19:36:00,21.1,-2.8,30.06,WSW,251,0.0,0.0,34,0.00,,,0.00,WeatherTracker,2013-01-26 00:36:00,
2013-01-25 19:41:00,21.1,-2.2,30.06,WSW,251,0.0,0.0,35,0.00,,,0.00,WeatherTracker,2013-01-26 00:41:00,
2013-01-25 19:46:00,21.0,-2.3,30.06,WSW,251,0.0,0.0,35,0.00,,,0.00,WeatherTracker,2013-01-26 00:46:00,
2013-01-25 19:51:00,21.0,-2.3,30.05,WSW,247,0.0,0.0,35,0.00,,,0.00,WeatherTracker,2013-01-26 00:51:00,
2013-01-25 19:56:00,20.9,-2.4,30.06,WSW,247,0.0,0.0,35,0.00,,,0.00,WeatherTracker,2013-01-26 00:56:00,
2013-01-25 20:01:00,20.9,-1.8,30.05,WSW,256,0.0,0.0,36,0.00,,,0.00,WeatherTracker,2013-01-26 01:01:00,
2013-01-25 20:06:00,21.0,-1.7,30.05,WSW,256,0.0,0.0,36,0.00,,,0.00,WeatherTracker,2013-01-26 01:06:00,
2013-01-25 20:11:00,21.0,-2.3,30.05,SW,225,1.0,0.0,35,0.00,,,0.00,WeatherTracker,2013-01-26 01:11:00,
2013-01-25 20:16:00,20.8,-2.5,30.05,WSW,255,0.0,0.0,35,0.00,,,0.00,WeatherTracker,2013-01-26 01:16:00,
2013-01-25 20:21:00,20.8,-1.9,30.05,WSW,254,0.0,0.0,36,0.00,,,0.00,WeatherTracker,2013-01-26 01:21:00,
2013-01-25 20:26:00,20.8,-1.9,30.04,WSW,254,0.0,0.0,36,0.00,,,0.00,WeatherTracker,2013-01-26 01:26:00,
2013-01-25 20:31:00,20.8,-1.9,30.04,WSW,254,0.0,0.0,36,0.00,,,0.00,WeatherTracker,2013-01-26 01:31:00,
2013-01-25 20:36:00,20.8,-1.9,30.04,WSW,254,0.0,0.0,36,0.00,,,0.00,WeatherTracker,2013-01-26 01:36:00,
2013-01-25 20:41:00,20.7,-2.0,30.04,WSW,254,0.0,0.0,36,0.00,,,0.00,WeatherTracker,2013-01-26 01:41:00,
2013-01-25 20:46:00,20.9,-1.8,30.04,WSW,254,0.0,0.0,36,0.00,,,0.00,WeatherTracker,2013-01-26 01:46:00,
2013-01-25 20:52:00,20.9,-1.2,30.04,WSW,254,0.0,0.0,37,0.00,,,0.00,WeatherTracker,2013-01-26 01:52:00,
2013-01-25 20:57:00,20.8,-1.3,30.04,WSW,254,0.0,0.0,37,0.00,,,0.00,WeatherTracker,2013-01-26 01:57:00,
2013-01-25 21:02:00,20.9,-0.7,30.04,WSW,254,0.0,0.0,38,0.00,,,0.00,WeatherTracker,2013-01-26 02:02:00,
2013-01-25 21:07:00,20.9,-1.2,30.04,WSW,254,0.0,0.0,37,0.00,,,0.00,WeatherTracker,2013-01-26 02:07:00,
2013-01-25 21:12:00,20.8,-1.3,30.03,WSW,250,0.0,0.0,37,0.00,,,0.00,WeatherTracker,2013-01-26 02:12:00,
2013-01-25 21:17:00,20.8,-1.3,30.03,SW,234,0.0,0.0,37,0.00,,,0.00,WeatherTracker,2013-01-26 02:17:00,
2013-01-25 21:22:00,20.7,-2.0,30.03,West,259,0.0,0.0,36,0.00,,,0.00,WeatherTracker,2013-01-26 02:22:00,
2013-01-25 21:27:00,20.7,-1.4,30.03,SSW,212,0.0,0.0,37,0.00,,,0.00,WeatherTracker,2013-01-26 02:27:00,
2013-01-25 21:32:00,20.7,-0.3,30.03,SSW,213,0.0,0.0,39,0.00,,,0.00,WeatherTracker,2013-01-26 02:32:00,
2013-01-25 21:37:00,20.6,2.2,30.03,West,275,0.0,0.0,44,0.00,,,0.00,WeatherTracker,2013-01-26 02:37:00,
2013-01-25 21:42:00,20.2,4.1,30.03,NW,309,0.0,0.0,49,0.00,,,0.00,WeatherTracker,2013-01-26 02:42:00,
2013-01-25 21:47:00,20.0,6.9,30.03,SW,233,4.0,0.0,56,0.00,,,0.00,WeatherTracker,2013-01-26 02:47:00,
2013-01-25 21:52:00,19.5,7.9,30.03,SSE,149,0.0,0.0,60,0.00,,,0.00,WeatherTracker,2013-01-26 02:52:00,
2013-01-25 21:57:00,19.0,9.2,30.03,SSW,210,1.0,0.0,65,0.00,,,0.00,WeatherTracker,2013-01-26 02:57:00,
2013-01-25 22:02:00,18.6,9.8,30.02,WSW,250,0.0,0.0,68,0.00,,,0.00,WeatherTracker,2013-01-26 03:02:00,
2013-01-25 22:07:00,18.2,10.4,30.02,WSW,256,0.0,0.0,71,0.00,,,0.00,WeatherTracker,2013-01-26 03:07:00,
2013-01-25 22:12:00,18.1,11.2,30.02,WSW,256,0.0,0.0,74,0.00,,,0.00,WeatherTracker,2013-01-26 03:12:00,
2013-01-25 22:17:00,17.9,11.3,30.02,WSW,256,0.0,0.0,75,0.00,,,0.00,WeatherTracker,2013-01-26 03:17:00,
2013-01-25 22:22:00,17.7,11.7,30.02,WSW,256,0.0,0.0,77,0.00,,,0.00,WeatherTracker,2013-01-26 03:22:00,
2013-01-25 22:27:00,17.7,12.3,30.02,WSW,256,0.0,0.0,79,0.00,,,0.00,WeatherTracker,2013-01-26 03:27:00,
2013-01-25 22:32:00,17.6,12.5,30.02,WSW,256,0.0,0.0,80,0.00,,,0.00,WeatherTracker,2013-01-26 03:32:00,
2013-01-25 22:37:00,17.5,12.7,30.02,WSW,256,0.0,0.0,81,0.00,,,0.00,WeatherTracker,2013-01-26 03:37:00,
2013-01-25 22:43:00,17.5,13.0,30.01,WSW,256,0.0,0.0,82,0.00,,,0.00,WeatherTracker,2013-01-26 03:43:00,
2013-01-25 22:48:00,17.5,13.0,30.01,WSW,256,0.0,0.0,82,0.00,,,0.00,WeatherTracker,2013-01-26 03:48:00,
2013-01-25 22:53:00,17.4,13.1,30.01,WSW,256,0.0,0.0,83,0.00,,,0.00,WeatherTracker,2013-01-26 03:53:00,
2013-01-25 22:58:00,17.4,13.4,30.01,WSW,256,0.0,0.0,84,0.00,,,0.00,WeatherTracker,2013-01-26 03:58:00,
2013-01-25 23:03:00,17.2,12.9,30.01,WSW,257,0.0,0.0,83,0.00,,,0.00,WeatherTracker,2013-01-26 04:03:00,
2013-01-25 23:08:00,17.2,13.2,30.01,WSW,257,0.0,0.0,84,0.00,,,0.00,WeatherTracker,2013-01-26 04:08:00,
2013-01-25 23:13:00,17.2,13.2,30.01,WSW,257,0.0,0.0,84,0.00,,,0.00,WeatherTracker,2013-01-26 04:13:00,
2013-01-25 23:18:00,17.1,13.1,30.01,WSW,257,0.0,0.0,84,0.00,,,0.00,WeatherTracker,2013-01-26 04:18:00,
2013-01-25 23:23:00,17.0,13.3,30.01,West,278,0.0,0.0,85,0.00,,,0.00,WeatherTracker,2013-01-26 04:23:00,
2013-01-25 23:28:00,17.0,13.3,30.01,WSW,255,1.0,0.0,85,0.00,,,0.00,WeatherTracker,2013-01-26 04:28:00,
2013-01-25 23:33:00,16.9,13.2,30.02,WSW,257,0.0,0.0,85,0.00,,,0.00,WeatherTracker,2013-01-26 04:33:00,
2013-01-25 23:38:00,16.9,13.5,30.01,SSW,199,0.0,0.0,86,0.00,,,0.00,WeatherTracker,2013-01-26 04:38:00,
2013-01-25 23:43:00,17.0,13.5,30.01,SSW,199,0.0,0.0,86,0.00,,,0.00,WeatherTracker,2013-01-26 04:43:00,
2013-01-25 23:48:00,16.9,13.5,30.00,SSW,199,0.0,0.0,86,0.00,,,0.00,WeatherTracker,2013-01-26 04:48:00,
2013-01-25 23:53:00,16.8,13.1,30.00,SSW,201,0.0,0.0,85,0.00,,,0.00,WeatherTracker,2013-01-26 04:53:00,
2013-01-25 23:58:00,16.8,13.4,30.00,SSW,201,0.0,0.0,86,0.00,,,0.00,WeatherTracker,2013-01-26 04:58:00,